Location: Observatory
(49.4490°N, 2.6360°W)
Time: 13:49:26
(UTC+01:00)

CAS-4A - Pass Details

Date: 01 May 2025
Orbit: 371 x 397 km, 43.0° (Epoch: 15 May)

Event Time Altitude Azimuth Distance (km) Brightness Sun altitude
Exits shadow 03:59:19 18° 162° (SSE) 1,012 ? -15.1°
Drops below altitude 10° 04:01:28 10° 119° (ESE) 1,392 ? -14.9°
Sets 04:03:57 0° 99° (E) 2,254 ? -14.6°
